Wind_Speed
11 11 9 7 6 4 2 0 2 2 3 3 4 4 3 4 5 4 1 3 5 7 7 6 3 3 3 2 3 5 3 9 9 5 8 10 13 7 7 15 10 4 11 17 18
12 11 10 8 5 4 2 0 2 3 3 4 4 4 4 4 4 4 2 4 6 7 7 6 2 4 3 2 2 7 9 9 5 9 10 9 8 9 13 16 11 11 15 20 19
12 12 11 8 6 4 2 0 2 3 4 5 5 4 4 4 5 3 5 6 6 6 3 3 3 4 3 4 1 3 10 4 5 9 12 13 8 6 12 9 12 18 21 19 17
12 12 12 10 6 4 2 0 2 3 5 6 6 5 5 8 2 4 7 7 7 4 1 1 2 4 1 3 3 3 5 5 10 11 12 9 10 8 4 5 12 13 20 19 16
13 13 12 10 6 4 2 0 1 3 5 7 6 6 8 4 4 6 8 8 7 4 1 2 3 3 4 3 3 7 7 10 12 12 11 9 7 7 5 6 11 18 20 18 15
13 13 11 9 6 3 1 1 2 3 5 7 8 8 6 6 5 6 10 9 6 3 1 4 5 4 4 5 8 7 14 14 11 11 9 6 8 6 6 11 16 20 19 17 16
13 12 11 9 5 3 1 1 2 3 4 6 8 8 3 3 4 7 11 8 7 3 3 4 6 4 1 8 4 7 11 11 9 8 5 5 9 3 12 15 16 16 16 16 16
13 12 10 8 5 2 1 1 3 3 4 5 8 9 2 7 4 7 11 8 8 6 1 2 4 2 3 5 5 4 3 3 7 6 4 7 10 9 14 16 17 17 16 15 16
13 11 10 8 5 1 2 2 2 3 4 6 7 6 6 7 3 6 10 6 7 5 3 3 2 2 5 9 7 5 3 3 3 5 4 9 4 9 13 14 16 18 17 17 16
13 11 10 7 3 2 2 2 2 3 4 5 5 4 5 6 7 6 9 7 5 6 2 4 4 4 4 5 5 5 4 2 2 6 7 6 5 6 14 14 15 18 19 20 19
12 11 9 6 0 4 2 2 1 1 4 2 4 1 6 6 8 7 8 7 7 9 10 2 8 5 11 5 5 6 5 4 2 1 8 9 8 8 14 17 17 18 20 21 21
13 10 8 5 1 5 4 2 2 1 3 5 5 2 5 6 7 10 10 10 10 12 6 6 9 4 0 2 7 9 8 3 4 1 6 7 9 10 13 19 20 21 21 21 21
13 10 7 4 3 7 5 3 0 4 5 5 6 7 8 7 5 11 14 9 10 11 11 13 9 4 2 3 7 4 6 5 5 2 6 7 9 8 12 19 22 21 22 21 21
14 9 5 3 3 7 3 3 3 2 5 7 8 7 8 6 7 5 13 8 6 10 5 8 1 7 7 6 6 5 5 2 1 6 4 4 3 7 7 11 16 24 25 25 25
15 10 5 6 4 7 7 4 1 1 5 7 7 5 8 8 10 7 11 10 9 8 6 3 5 7 11 10 3 6 4 3 3 6 7 10 7 8 5 7 11 18 24 27 26
15 10 6 7 9 8 8 3 1 6 2 7 8 11 12 11 6 8 11 6 2 5 8 12 0 5 5 3 3 5 4 5 6 8 10 8 5 2 4 2 3 1 18 26 28
15 9 6 8 5 11 9 4 5 6 3 8 10 9 14 9 8 10 13 13 9 9 12 13 14 10 8 10 7 9 11 9 5 6 2 5 8 7 10 6 7 7 10 18 26
10 3 5 10 9 13 10 6 7 2 5 3 5 7 12 9 7 9 11 12 10 7 1 8 11 16 14 15 10 13 14 9 6 8 7 4 5 1 8 15 9 10 9 12 22
3 6 5 8 12 13 11 8 3 1 2 5 7 9 10 10 4 10 12 11 9 14 7 5 5 4 3 8 10 11 11 10 11 8 9 6 2 11 3 4 2 12 6 7 15
7 4 3 8 14 9 9 6 1 2 3 5 8 6 12 14 12 11 11 2 8 10 16 2 5 2 5 6 4 11 5 8 11 13 15 3 3 4 8 9 5 11 13 8 5
4 3 2 8 13 10 8 2 3 2 3 3 4 5 6 7 13 11 7 6 2 3 12 9 9 8 6 10 8 7 10 8 10 8 10 11 4 7 6 7 7 9 11 8 3
2 3 5 11 9 4 7 1 2 1 2 1 2 2 4 5 10 9 10 2 1 5 7 11 7 10 13 6 2 8 11 10 9 9 8 8 12 11 7 9 8 13 11 10 9
1 3 3 3 5 7 4 5 3 2 3 1 2 3 1 2 4 4 5 3 4 4 4 7 8 10 12 8 9 9 10 11 12 10 13 12 9 4 1 10 14 17 18 14 12
1 4 3 2 2 3 7 5 5 4 5 2 1 2 4 5 0 3 7 3 2 2 5 3 13 12 12 8 4 4 7 6 10 10 12 13 14 10 11 12 15 20 18 16 15
4 3 1 4 4 3 2 1 6 3 2 2 3 1 2 5 6 5 3 5 5 1 3 5 12 13 14 11 11 13 15 14 15 14 16 16 17 17 12 12 15 15 17 18 15
3 1 2 4 2 4 2 2 3 3 3 3 3 2 2 6 5 3 5 4 3 2 5 4 10 7 15 13 14 18 17 17 18 18 20 19 21 9 5 9 11 13 14 15 15
6 4 3 1 3 4 2 3 3 2 2 3 3 5 6 4 8 8 8 9 10 7 7 7 9 9 17 15 14 17 18 22 21 20 18 16 11 9 9 8 9 10 11 13 16
Wind_Direction
19 12 5 356 344 333 330 204 211 185 186 200 161 181 161 175 192 173 196 222 176 156 158 178 184 214 197 244 226 252 106 74 80 63 122 133 123 108 127 138 142 129 144 144 149
18 11 5 2 349 337 341 280 201 193 185 188 169 187 153 175 186 216 187 159 146 143 162 190 232 213 242 213 214 270 61 48 54 84 127 139 129 123 147 144 141 138 130 144 149
15 11 6 5 2 344 335 340 200 197 183 182 173 182 150 160 154 151 161 154 152 142 189 228 245 223 222 196 164 15 40 46 74 104 122 138 128 131 142 163 159 150 151 152 154
11 11 9 4 6 359 339 44 199 194 180 174 173 170 148 155 147 159 157 155 154 160 208 341 239 215 82 79 79 194 65 69 98 128 129 143 124 131 124 80 171 165 163 160 161
6 9 9 6 1 11 1 20 175 175 176 162 175 162 149 182 104 176 165 167 161 134 95 340 39 294 74 62 85 32 96 103 122 130 131 124 120 116 64 117 154 164 168 169 168
1 3 7 6 1 355 359 143 159 165 167 166 167 164 157 186 157 183 180 170 175 163 53 31 18 5 51 34 43 77 105 115 124 127 145 137 128 159 120 136 141 157 172 179 179
357 358 2 4 359 340 317 164 154 164 165 167 164 167 166 114 174 179 172 178 178 161 77 29 353 328 2 105 83 113 117 123 131 147 146 169 156 105 148 154 157 172 177 178 183
352 352 357 356 354 342 318 158 156 156 163 163 158 156 142 171 157 158 177 193 186 179 112 20 349 42 358 129 154 123 264 232 131 185 139 246 99 124 159 164 169 178 182 189 191
348 347 349 349 351 86 75 90 134 149 157 151 151 155 143 178 150 170 169 182 187 197 257 306 344 351 174 203 176 199 16 15 191 200 168 244 69 142 171 176 174 182 187 193 196
344 343 344 344 341 156 109 89 83 121 132 126 162 200 170 164 176 168 181 169 185 189 225 242 242 241 181 246 47 5 345 8 261 176 213 228 238 169 186 190 187 187 192 197 202
340 337 337 340 308 163 146 124 309 145 199 321 136 8 141 150 151 168 176 173 192 214 234 193 270 245 23 6 342 311 309 309 142 188 263 254 249 205 202 207 200 198 197 202 206
334 334 333 342 180 164 146 177 33 27 216 222 216 210 162 159 167 170 171 197 207 224 212 241 251 20 29 273 284 306 305 58 128 111 257 275 259 235 204 216 217 207 204 206 208
331 328 324 326 196 179 170 203 300 354 253 162 188 188 177 189 198 187 184 201 223 223 224 254 65 115 226 249 280 277 354 37 8 181 225 288 243 219 219 217 219 224 216 210 208
328 322 306 315 164 191 203 209 316 301 244 137 184 180 185 196 193 184 198 213 215 243 221 262 75 244 249 269 287 304 12 323 209 269 27 329 350 171 194 208 214 220 219 215 213
322 314 278 211 182 179 209 221 324 255 218 142 148 166 179 209 124 176 186 207 239 204 228 203 217 225 249 268 282 50 336 297 285 261 284 168 270 126 176 218 216 220 225 221 215
317 306 267 225 217 209 191 200 216 231 167 149 149 178 180 193 150 145 177 204 263 216 231 272 292 249 275 161 250 150 235 217 236 277 272 80 301 248 136 90 330 329 214 221 217
316 297 248 201 188 193 183 179 224 258 142 155 170 184 197 179 163 182 184 195 205 207 222 215 233 222 228 235 190 220 251 257 245 232 307 66 295 265 318 334 342 290 269 219 214
326 304 200 193 184 175 171 219 246 54 173 118 168 183 195 172 198 178 186 203 211 245 257 223 205 209 216 233 256 224 256 277 287 290 326 132 273 97 325 309 295 293 262 235 208
85 94 121 182 176 169 203 218 343 140 82 186 171 198 185 191 234 191 205 214 207 209 242 205 223 122 224 237 240 213 240 276 287 247 265 270 281 275 305 311 80 43 34 193 205
124 117 69 162 167 171 220 256 188 357 297 218 226 239 198 188 200 200 181 165 221 224 231 155 253 142 126 174 181 260 354 231 226 267 272 255 241 284 18 36 71 50 44 59 192
153 179 139 139 157 198 221 173 172 82 325 275 219 205 242 187 216 203 180 116 217 156 228 226 243 153 193 208 189 175 222 230 286 292 291 285 280 73 309 359 351 0 22 23 359
211 191 174 143 186 246 211 198 206 98 74 194 277 318 247 203 213 217 197 326 30 217 190 214 244 237 238 118 305 282 278 246 255 236 236 287 279 313 327 319 334 333 337 337 326
197 102 160 190 209 190 153 144 63 177 54 320 173 337 314 187 217 232 179 107 30 223 205 180 229 240 225 190 206 231 227 247 264 272 263 275 270 164 200 289 328 334 331 330 321
279 183 139 78 30 255 179 171 147 61 75 52 47 235 221 211 107 174 182 132 68 32 8 233 254 252 270 308 20 207 203 221 279 271 270 259 282 274 297 331 331 331 332 326 321
17 70 352 158 103 119 230 244 185 148 53 29 170 86 296 239 231 215 225 187 168 68 230 271 256 258 268 281 280 276 277 270 260 259 271 289 296 300 326 320 319 313 323 328 331
28 331 78 94 120 193 171 106 206 134 333 151 258 327 303 265 325 311 315 236 280 217 255 247 262 268 263 265 268 266 263 262 261 266 272 274 277 315 329 310 314 318 327 334 337
42 44 334 132 160 225 89 130 129 271 103 82 332 282 245 44 320 306 289 288 285 287 268 268 271 242 263 269 274 267 258 251 254 262 273 278 309 346 333 340 320 342 348 354 351
Height
1509 1508 1506 1505 1503 1503 1503 1503 1503 1503 1504 1504 1505 1505 1506 1506 1506 1507 1509 1510 1509 1510 1510 1512 1513 1512 1512 1511 1509 1505 1493 1498 1502 1500 1508 1512 1514 1519 1522 1525 1527 1531 1532 1538 1543
1510 1508 1506 1504 1503 1502 1502 1503 1502 1502 1504 1504 1505 1505 1506 1506 1507 1508 1509 1509 1509 1511 1513 1514 1513 1513 1512 1510 1508 1498 1492 1499 1498 1502 1505 1511 1514 1519 1521 1524 1529 1532 1537 1540 1543
1510 1508 1505 1503 1502 1502 1501 1502 1502 1502 1503 1503 1504 1504 1506 1506 1508 1508 1508 1509 1510 1511 1513 1513 1513 1512 1506 1507 1506 1498 1497 1499 1501 1504 1508 1512 1516 1519 1519 1522 1526 1532 1537 1541 1544
1510 1508 1505 1503 1502 1501 1500 1501 1501 1501 1502 1503 1504 1504 1505 1506 1505 1507 1508 1509 1511 1511 1513 1513 1511 1507 1500 1501 1502 1498 1502 1502 1503 1507 1509 1512 1515 1517 1520 1521 1525 1530 1536 1541 1544
1510 1508 1505 1503 1501 1501 1500 1500 1500 1501 1501 1503 1503 1504 1506 1507 1508 1507 1508 1509 1511 1512 1513 1512 1509 1505 1501 1501 1500 1499 1502 1504 1506 1509 1511 1514 1515 1518 1522 1524 1526 1530 1536 1540 1543
1510 1508 1505 1503 1501 1500 1500 1500 1500 1500 1501 1502 1503 1504 1505 1504 1507 1507 1508 1509 1512 1513 1514 1512 1510 1509 1504 1504 1501 1504 1503 1506 1508 1511 1514 1512 1516 1518 1523 1526 1529 1533 1536 1539 1541
1509 1507 1505 1503 1501 1500 1500 1500 1500 1500 1501 1502 1503 1504 1505 1507 1506 1507 1508 1511 1511 1513 1514 1512 1511 1509 1507 1504 1507 1504 1505 1506 1509 1511 1512 1512 1516 1513 1521 1525 1529 1533 1536 1538 1541
1509 1506 1504 1503 1501 1500 1499 1499 1500 1500 1501 1502 1504 1505 1505 1506 1506 1507 1508 1510 1511 1512 1513 1513 1511 1509 1507 1509 1507 1504 1503 1504 1508 1510 1513 1512 1514 1515 1521 1523 1527 1531 1534 1537 1539
1508 1506 1504 1502 1501 1500 1499 1500 1500 1501 1501 1502 1505 1505 1506 1506 1507 1507 1508 1512 1512 1513 1512 1511 1511 1508 1507 1499 1504 1502 1512 1507 1507 1508 1510 1512 1511 1514 1520 1522 1524 1528 1532 1535 1538
1506 1504 1503 1501 1501 1500 1500 1500 1500 1501 1502 1503 1504 1507 1505 1506 1506 1507 1508 1509 1511 1512 1513 1511 1508 1501 1500 1498 1519 1513 1510 1505 1510 1504 1506 1507 1508 1513 1517 1518 1521 1524 1528 1531 1534
1506 1504 1503 1501 1500 1500 1501 1502 1505 1505 1502 1501 1501 1502 1502 1504 1506 1508 1509 1511 1511 1511 1506 1508 1504 1500 1499 1500 1503 1504 1506 1508 1503 1502 1505 1503 1505 1505 1512 1514 1516 1519 1523 1526 1530
1505 1503 1501 1500 1499 1500 1501 1503 1503 1503 1499 1500 1501 1502 1503 1504 1506 1508 1509 1511 1509 1505 1506 1507 1504 1499 1504 1504 1503 1501 1502 1501 1500 1503 1505 1499 1501 1497 1501 1508 1509 1512 1516 1520 1525
1502 1501 1500 1499 1499 1500 1500 1502 1501 1500 1498 1499 1500 1502 1504 1505 1502 1504 1508 1508 1506 1504 1503 1503 1502 1505 1504 1502 1504 1495 1499 1501 1503 1501 1498 1499 1495 1493 1494 1499 1505 1508 1511 1515 1517
1500 1499 1498 1498 1501 1499 1501 1500 1500 1499 1490 1495 1497 1499 1502 1503 1502 1504 1506 1508 1507 1503 1503 1501 1499 1504 1503 1502 1500 1497 1499 1500 1500 1501 1503 1496 1507 1492 1489 1493 1497 1501 1504 1508 1512
1497 1496 1496 1497 1497 1500 1500 1500 1500 1500 1499 1492 1495 1496 1499 1499 1499 1503 1505 1507 1502 1502 1507 1500 1501 1503 1503 1498 1500 1504 1500 1498 1498 1496 1498 1492 1502 1482 1485 1490 1488 1494 1497 1501 1505
1493 1493 1493 1494 1495 1497 1498 1499 1501 1498 1501 1489 1489 1492 1495 1495 1497 1501 1504 1506 1505 1505 1504 1499 1504 1502 1496 1499 1499 1501 1501 1498 1494 1492 1506 1493 1502 1485 1481 1482 1481 1484 1488 1493 1497
1489 1489 1490 1491 1495 1495 1498 1500 1495 1493 1484 1488 1486 1486 1485 1490 1493 1495 1499 1501 1500 1511 1505 1497 1498 1496 1500 1500 1498 1499 1497 1508 1510 1504 1505 1494 1502 1488 1476 1476 1480 1482 1483 1486 1491
1487 1486 1487 1489 1491 1494 1497 1496 1501 1480 1479 1483 1482 1484 1487 1486 1488 1492 1495 1497 1496 1497 1496 1501 1502 1491 1491 1495 1492 1491 1492 1503 1527 1514 1501 1495 1504 1484 1473 1475 1476 1478 1479 1480 1485
1487 1486 1488 1489 1491 1494 1497 1492 1479 1480 1481 1481 1484 1485 1485 1485 1487 1490 1491 1489 1487 1493 1502 1498 1498 1490 1493 1490 1493 1491 1503 1483 1496 1491 1505 1487 1481 1472 1470 1471 1474 1475 1476 1479 1482
1488 1490 1489 1488 1491 1495 1492 1488 1485 1488 1487 1485 1482 1480 1482 1482 1488 1486 1487 1486 1488 1489 1490 1488 1501 1487 1493 1493 1494 1492 1486 1499 1493 1522 1522 1491 1497 1487 1479 1474 1474 1474 1476 1480 1484
1489 1488 1490 1490 1492 1493 1486 1482 1488 1490 1491 1486 1482 1482 1477 1479 1478 1479 1479 1489 1491 1490 1490 1486 1492 1491 1491 1489 1483 1493 1493 1491 1487 1491 1506 1508 1488 1469 1475 1474 1476 1476 1480 1480 1482
1489 1484 1490 1491 1492 1490 1486 1488 1494 1490 1491 1488 1487 1484 1481 1483 1480 1479 1483 1482 1493 1490 1490 1487 1482 1491 1484 1478 1482 1480 1481 1481 1492 1499 1492 1499 1494 1465 1470 1473 1477 1478 1478 1479 1481
1489 1489 1491 1490 1483 1485 1492 1491 1493 1490 1492 1489 1488 1490 1489 1485 1490 1484 1484 1494 1493 1489 1486 1486 1485 1491 1487 1483 1483 1484 1477 1479 1478 1480 1496 1502 1487 1466 1471 1473 1474 1478 1479 1479 1479
1491 1485 1491 1492 1491 1485 1487 1489 1492 1496 1495 1494 1492 1491 1489 1488 1488 1490 1488 1492 1494 1493 1495 1493 1479 1483 1483 1474 1478 1487 1482 1482 1483 1489 1482 1478 1474 1469 1473 1477 1480 1481 1482 1481 1479
1492 1494 1494 1486 1493 1492 1492 1492 1490 1493 1497 1496 1494 1493 1492 1492 1490 1489 1491 1490 1493 1496 1494 1488 1489 1481 1480 1477 1481 1483 1483 1480 1483 1482 1489 1479 1479 1474 1475 1480 1482 1483 1481 1479 1478
1495 1495 1497 1498 1498 1495 1498 1498 1496 1499 1500 1496 1496 1499 1496 1495 1494 1491 1497 1493 1489 1493 1491 1488 1491 1490 1490 1481 1482 1484 1480 1479 1479 1479 1477 1477 1477 1469 1482 1482 1482 1483 1481 1479 1478
1497 1498 1499 1502 1498 1495 1499 1502 1503 1505 1505 1505 1505 1502 1499 1500 1508 1505 1504 1502 1500 1500 1494 1493 1490 1493 1493 1480 1479 1491 1480 1474 1472 1470 1470 1480 1472 1480 1479 1483 1484 1484 1483 1480 1478